Weather History for KFMN - April, 2014

Change the Weather History Date:

Monday, April 28, 2014

  Actual Average Record
Temperature  
Mean Temperature 49 °F -  
Max Temperature 57 °F 68 °F 84 °F (1992)
Min Temperature 41 °F 36 °F 27 °F (1991)
Degree Days  
Heating Degree Days 16    
Moisture  
Dew Point 14 °F    
Average Humidity 27    
Maximum Humidity 47    
Minimum Humidity 4    
Precipitation  
Precipitation 0.00 in - - ()
Sea Level Pressure  
Sea Level Pressure 29.91 in    
Wind  
Wind Speed 17 mph (WNW)    
Max Wind Speed 36 mph    
Max Gust Speed 45 mph    
Visibility 10 miles    
Events Rain    
Averages and records for this station are not official NWS values.
T = Trace of Precipitation, MM = Missing Value Source: NWS Daily Summary

Daily Weather History Graph

Daily Weather History Graph

Search for Another Location

Airport or City:

Trip Planner

Search our weather history database for the weather conditions in past years. The results will help you decide how hot, cold, wet, or windy it might be!

Date:

Astronomy

Apr. 28, 2014 Rise Set
Actual Time 6:22 AM MDT 7:58 PM MDT
Civil Twilight 5:54 AM MDT 8:26 PM MDT
Nautical Twilight 5:21 AM MDT 8:59 PM MDT
Astronomical Twilight 4:46 AM MDT 9:34 PM MDT
Moon 6:01 AM MDT (4/28) 7:40 PM MDT (4/28)
Length of Visible Light 14h 31m
Length of Day
13h 36m
Waning Crescent, 0% of the Moon is Illuminated
Apr 28
Waning Crescent
Apr 29
New
May 6
First Quarter
May 14
Full
May 21
Last Quarter

Hourly Weather History & Observations

Time (MDT) Temp. Windchill Dew Point Humidity Pressure Visibility Wind Dir Wind Speed Gust Speed Precip Events Conditions
12:53 AM 43.0 °F 36.0 °F 23.0 °F 45% 29.80 in 10.0 mi West 13.8 mph - N/A   Overcast
2:53 AM 43.0 °F 37.7 °F 24.1 °F 47% 29.80 in 10.0 mi West 9.2 mph - N/A   Overcast
4:53 AM 43.0 °F 37.2 °F 24.1 °F 47% 29.81 in 10.0 mi West 10.4 mph - N/A   Overcast
5:53 AM 44.1 °F 35.9 °F 25.0 °F 47% 29.83 in 10.0 mi West 19.6 mph - N/A   Overcast
6:53 AM 44.1 °F 36.5 °F 24.1 °F 45% 29.84 in 10.0 mi West 17.3 mph 26.5 mph N/A   Mostly Cloudy
7:53 AM 45.0 °F 37.4 °F 23.0 °F 42% 29.86 in 10.0 mi WNW 18.4 mph - N/A   Scattered Clouds
8:53 AM 46.9 °F - 21.0 °F 36% 29.88 in 10.0 mi WNW 15.0 mph 35.7 mph N/A   Overcast
9:53 AM 48.9 °F - 23.0 °F 36% 29.90 in 10.0 mi WNW 20.7 mph 31.1 mph N/A   Scattered Clouds
10:53 AM 51.1 °F - 19.9 °F 29% 29.90 in 10.0 mi WNW 27.6 mph 40.3 mph N/A   Partly Cloudy
11:30 AM 48.9 °F - 26.1 °F 41% 29.95 in 10.0 mi NNW 16.1 mph 24.2 mph N/A   Mostly Cloudy
11:53 AM 50.0 °F - 25.0 °F 38% 29.91 in 10.0 mi WNW 16.1 mph 28.8 mph 0.00 in Rain Light Rain
12:53 PM 52.0 °F - 19.9 °F 28% 29.88 in 10.0 mi WNW 16.1 mph 31.1 mph 0.00 in Rain Light Rain
1:53 PM 54.0 °F - 8.1 °F 16% 29.87 in 10.0 mi WNW 23.0 mph 41.4 mph 0.00 in   Scattered Clouds
4:53 PM 55.0 °F - -5.1 °F 8% 29.88 in 10.0 mi WNW 27.6 mph 44.9 mph N/A   Clear
5:53 PM 54.0 °F - -5.1 °F 9% 29.90 in 10.0 mi NW 26.5 mph 43.7 mph N/A   Clear
6:53 PM 52.0 °F - -0.9 °F 11% 29.92 in 10.0 mi WNW 28.8 mph 40.3 mph N/A   Partly Cloudy
7:53 PM 48.9 °F - -0.9 °F 13% 29.96 in 10.0 mi WNW 21.9 mph 33.4 mph N/A   Partly Cloudy
9:53 PM 44.1 °F 34.6 °F -0.0 °F 16% 30.04 in 10.0 mi NNW 26.5 mph 33.4 mph N/A   Clear
10:53 PM 43.0 °F 33.8 °F 1.9 °F 18% 30.06 in 10.0 mi NNW 23.0 mph 32.2 mph N/A   Clear
11:53 PM 41.0 °F 32.2 °F 10.9 °F 29% 30.10 in 10.0 mi NNW 18.4 mph 25.3 mph N/A   Clear